Temperature
16 16 16 17 18 18 19 19 19 20 20 19 18 18 19 20 21 21 21 22 22 22 21 21 20 19 18 17 16 15 15 14 13 12 12 12 11 11 11 11 10 10 10 10
16 15 17 18 19 18 18 18 18 19 20 19 18 18 19 19 20 21 21 21 21 21 21 21 20 19 18 17 16 15 15 14 13 13 12 12 12 11 11 11 10 10 10 10
16 17 18 18 18 18 18 17 18 18 19 19 18 17 18 20 20 21 21 21 21 21 21 20 19 18 17 16 16 15 15 14 13 13 12 11 11 11 11 10 10 10 10 10
16 18 18 18 18 18 17 18 18 18 17 16 18 16 18 19 19 19 20 21 21 20 20 20 19 18 17 16 16 15 15 14 13 12 12 12 12 11 11 11 11 10 10 10
16 17 17 17 18 18 18 19 18 18 17 16 16 16 17 19 19 19 19 20 20 20 20 19 18 17 17 16 15 14 14 13 13 12 12 12 12 11 11 11 11 10 10 10
17 18 18 18 19 19 18 18 17 17 16 14 16 16 16 18 19 20 19 20 20 19 19 18 17 17 16 15 14 14 13 13 12 12 12 11 11 11 11 11 11 10 10 10
15 17 18 18 17 17 17 16 14 13 13 14 17 16 17 20 20 20 20 20 19 19 18 17 16 16 15 14 14 13 13 12 12 12 11 11 11 11 11 11 11 10 10 10
14 15 17 17 17 16 16 16 14 14 14 16 17 16 18 20 20 20 20 20 19 18 17 17 16 15 14 14 13 13 12 12 12 11 11 11 11 11 11 11 11 11 10 10
15 15 17 17 18 17 16 15 16 16 16 15 16 18 19 19 19 19 19 19 18 18 17 16 15 14 13 13 13 12 12 12 12 11 11 11 11 10 10 10 10 10 10 10
17 16 16 16 17 17 17 16 15 14 13 13 15 16 17 18 18 18 18 18 18 17 16 15 14 14 13 12 12 12 12 12 12 11 11 11 11 10 10 10 10 10 10 10
16 16 15 15 15 15 15 16 16 15 14 14 14 16 19 18 18 18 18 18 18 17 16 15 14 13 12 12 12 11 11 11 11 11 11 11 10 10 10 10 10 10 10 10
16 16 14 15 16 16 16 16 16 14 14 15 14 16 20 19 18 18 18 18 17 17 16 15 14 13 12 12 11 11 11 11 11 11 11 11 10 10 10 10 10 10 10 9
15 14 13 13 13 14 15 16 16 16 15 15 14 16 18 18 17 18 18 18 17 17 16 15 14 13 12 12 12 12 11 11 11 11 11 10 10 10 10 10 10 10 9 9
15 13 13 13 13 14 14 15 16 15 15 14 15 16 17 17 17 17 18 18 18 17 16 15 14 13 13 12 12 12 11 11 11 11 10 10 10 10 10 10 10 9 9 9
14 13 13 15 16 15 15 15 15 15 15 15 15 16 17 17 17 18 19 19 18 17 16 15 15 14 13 12 12 12 11 11 11 10 10 10 10 10 10 9 9 9 8 8
13 13 13 14 15 16 15 15 15 15 16 15 16 16 18 19 19 18 19 18 18 17 16 16 15 14 14 13 12 12 12 11 11 10 10 10 10 9 9 9 9 8 8 8
11 12 12 12 14 14 13 14 15 15 15 15 15 16 17 17 17 17 18 18 18 17 16 16 15 15 14 14 13 12 12 11 10 10 10 9 9 9 9 9 8 8 8 7
10 11 11 11 12 11 13 15 15 15 16 16 16 16 17 17 18 18 18 18 17 17 16 16 15 15 14 14 13 12 11 10 10 9 9 9 9 8 8 8 8 7 7 7
11 11 11 10 10 11 14 15 15 15 15 16 16 16 16 18 17 17 17 17 17 16 16 15 15 15 14 13 13 12 11 10 9 9 9 8 8 7 7 7 7 7 6 6
12 11 10 9 10 11 14 15 16 15 14 16 16 15 15 15 13 14 16 16 16 16 15 15 14 14 14 13 12 11 11 10 10 9 9 8 7 7 7 7 6 6 6 5
10 10 10 9 10 12 15 15 15 13 13 16 16 16 15 13 14 15 16 16 15 15 15 14 14 14 13 12 12 11 10 10 9 9 8 7 7 6 6 6 5 5 5 4
9 9 9 10 10 11 14 14 14 14 16 17 17 17 16 16 16 15 15 15 14 14 14 14 13 13 12 12 11 11 10 9 9 8 7 7 6 6 5 5 5 4 4 4
11 11 11 11 12 14 14 14 16 17 16 16 16 16 16 15 15 14 14 14 13 13 13 13 12 12 11 11 10 10 9 9 8 7 7 6 5 5 4 4 4 4 3 3
11 12 12 12 13 13 14 15 15 16 16 16 16 16 16 15 14 14 13 13 13 12 12 12 12 11 11 10 10 9 9 8 7 7 6 5 5 4 4 3 3 3 3 2
11 11 11 12 12 12 13 15 15 15 15 15 15 15 15 15 14 14 13 13 12 12 12 11 11 11 10 10 9 9 8 7 7 6 5 5 4 4 3 3 3 2 2 2
10 11 11 11 12 12 12 15 15 14 15 15 15 14 14 14 14 13 13 12 12 12 11 11 10 10 10 9 8 8 7 7 6 5 5 4 4 3 3 2 2 2 1 1
Wind_Speed
13 11 16 17 18 14 11 10 9 7 6 8 10 12 12 12 11 12 11 11 11 11 11 12 13 12 11 10 12 14 15 13 11 10 9 8 7 6 6 6 10 11 10 9
13 20 19 16 15 16 15 14 12 8 3 4 8 12 13 13 14 12 11 11 11 10 8 10 12 12 12 12 12 13 14 14 13 10 9 8 7 6 5 5 8 10 10 9
25 16 18 18 17 16 16 14 13 9 6 6 8 11 13 12 13 12 11 11 10 10 9 9 11 12 12 12 13 13 14 14 13 11 8 8 6 5 4 5 5 7 10 10
21 19 17 19 19 17 15 12 11 9 8 7 7 8 9 9 10 11 10 9 9 9 8 9 11 13 13 12 11 11 12 13 13 13 12 13 9 7 6 6 6 6 9 9
15 19 19 19 19 17 11 6 8 8 9 10 10 10 8 9 10 9 8 8 7 6 7 9 11 12 12 11 10 11 12 12 12 13 13 13 10 7 7 8 9 7 6 8
17 15 18 18 13 12 8 5 4 6 6 10 13 11 8 8 8 5 5 6 6 6 6 7 9 10 9 10 10 10 12 12 12 13 13 13 12 11 12 11 10 8 6 5
20 18 15 12 13 11 10 7 5 6 7 9 10 10 8 7 4 4 3 3 5 6 7 8 10 11 11 11 11 10 12 12 13 13 13 13 12 12 13 12 10 9 7 5
19 18 17 12 15 13 15 14 10 7 6 5 8 9 6 5 5 5 4 3 3 5 6 8 10 11 11 12 12 12 13 12 13 13 12 12 11 10 9 9 9 9 8 7
17 16 15 13 11 14 17 17 13 7 7 6 6 7 7 7 6 6 5 5 5 5 7 8 9 10 11 12 12 12 13 12 13 12 11 11 11 10 10 10 9 8 7 7
11 12 15 14 9 12 12 13 7 8 6 7 8 10 8 9 9 8 6 5 5 6 7 8 8 9 10 11 11 11 11 12 11 12 11 9 10 10 10 10 10 9 9 9
16 10 12 15 19 20 15 16 9 9 8 6 5 5 5 9 9 8 7 6 7 7 8 8 8 9 10 10 11 11 11 11 11 11 10 10 10 10 10 10 10 10 9 10
19 8 11 14 12 13 18 19 15 12 9 9 6 5 2 7 9 8 7 6 7 8 8 8 9 9 9 11 11 11 11 11 11 11 10 10 10 10 10 10 10 10 10 10
16 9 10 9 8 11 14 18 18 14 9 8 10 7 6 8 8 8 8 7 7 8 8 8 8 9 10 10 10 11 11 11 11 11 11 10 10 11 11 10 10 10 10 9
15 9 12 15 10 14 15 18 19 18 14 15 15 11 6 8 8 9 8 8 8 8 8 8 9 9 10 10 10 10 10 10 11 11 11 11 11 11 10 10 10 10 10 9
9 13 13 13 10 17 18 20 22 23 20 15 15 15 12 9 9 8 8 8 7 7 8 9 9 9 9 10 10 10 10 10 11 11 11 11 10 10 9 9 9 9 9 9
6 10 14 15 13 11 14 20 22 24 22 20 16 15 9 7 5 5 6 6 7 7 8 9 10 9 10 11 11 10 11 10 11 11 10 10 10 10 10 10 9 9 8 8
8 8 12 14 13 9 15 18 20 19 20 20 21 18 9 9 8 7 7 7 7 7 7 8 9 9 10 10 11 11 10 9 10 10 10 10 10 10 10 10 9 9 9 7
12 12 7 7 9 14 13 11 16 17 17 18 16 11 10 11 8 6 6 7 7 7 7 8 8 8 8 8 9 9 9 10 10 10 10 10 10 9 9 9 9 8 6 7
15 13 7 6 9 9 8 13 17 18 18 16 16 13 11 8 4 5 6 6 7 6 6 6 7 7 8 9 9 10 9 9 10 10 10 10 10 10 9 9 8 6 6 6
14 12 8 7 8 11 9 11 10 10 15 14 16 15 12 10 8 7 6 7 6 7 6 7 7 8 8 8 10 10 9 9 9 9 9 9 9 9 9 8 7 5 5 5
13 12 14 9 7 8 6 11 12 11 10 10 14 13 12 12 10 7 8 7 8 8 8 8 8 7 7 8 10 9 9 8 8 8 8 8 8 8 7 6 5 5 5 5
11 10 12 10 8 8 5 12 13 7 3 6 8 10 11 9 9 9 10 9 10 9 9 9 8 7 7 8 9 9 8 7 8 8 8 8 7 6 6 6 5 5 5 5
12 11 7 10 10 4 10 9 8 5 5 4 5 6 9 9 9 9 9 10 9 9 8 8 9 9 7 7 8 9 8 9 9 9 8 7 7 6 6 6 5 4 4 4
8 10 7 6 8 9 9 7 5 4 5 6 6 7 9 9 10 10 10 9 9 8 8 8 9 9 7 7 8 8 9 9 10 9 8 7 6 5 4 4 4 4 4 4
7 10 10 9 6 8 9 9 8 5 6 7 7 7 9 11 10 10 10 10 9 8 7 8 9 9 9 8 8 8 9 9 9 8 7 6 5 5 4 3 3 4 5 5
8 9 13 9 9 7 9 10 9 8 8 8 8 7 7 9 10 9 9 9 9 9 9 9 9 9 9 9 8 8 8 8 9 7 6 5 4 3 3 2 1 3 4 7
Wind_Direction
195 207 213 212 215 232 251 254 248 242 190 195 227 249 256 256 253 247 243 239 237 231 208 184 177 168 166 169 168 168 170 177 174 174 172 170 169 163 156 154 161 163 162 160
199 216 217 216 219 224 239 254 264 272 238 216 250 260 262 254 249 245 242 242 242 241 216 183 171 164 168 172 173 170 172 177 177 175 171 167 159 156 150 143 149 155 155 152
212 213 212 220 221 223 228 234 245 258 273 248 263 268 256 252 240 238 236 234 237 235 216 186 170 169 170 175 177 177 174 176 176 167 159 150 133 125 135 152 154 155 153 147
222 221 209 214 221 219 229 226 238 256 268 266 253 279 265 254 244 233 224 221 227 231 214 184 175 173 174 176 173 172 172 173 173 168 166 162 162 163 166 160 156 154 150 148
218 211 213 215 215 218 223 212 228 241 252 264 262 270 262 238 237 225 209 201 205 212 203 182 176 171 170 166 167 170 169 171 173 172 169 168 167 164 152 150 153 154 148 147
230 217 213 218 214 211 198 194 238 250 250 252 237 239 265 229 224 198 179 174 182 188 181 172 163 155 157 157 161 166 167 172 173 174 174 175 172 165 155 156 161 158 152 149
226 227 217 202 201 199 187 175 201 211 218 237 211 221 243 220 187 166 169 173 169 170 170 169 162 160 160 161 165 169 169 174 175 179 180 179 176 167 162 163 164 160 158 159
208 215 208 202 202 195 195 193 198 200 216 224 196 221 236 203 162 146 161 176 167 172 171 169 167 165 164 165 171 175 176 176 177 181 182 179 173 164 164 165 163 164 164 163
200 212 194 199 200 190 194 207 224 262 288 287 241 226 216 198 174 177 184 180 173 177 170 167 166 166 166 169 176 180 179 177 179 180 179 176 169 163 163 162 158 158 155 155
207 204 190 188 191 215 207 192 195 215 223 242 250 243 232 203 192 181 177 169 163 161 163 165 169 170 167 169 175 180 181 179 176 176 178 175 167 164 160 158 158 155 152 149
231 211 189 185 196 197 200 202 193 197 221 220 236 239 213 183 164 157 152 146 152 164 168 170 169 168 165 166 174 181 180 175 174 176 174 168 163 158 156 158 158 154 152 155
219 219 205 203 200 203 205 207 198 198 205 212 240 262 115 122 131 138 147 153 158 160 163 165 166 166 167 171 176 181 179 176 176 174 169 165 159 156 158 159 157 154 156 160
210 210 194 192 204 208 215 214 212 217 229 223 219 236 172 144 145 158 172 173 167 163 161 163 166 172 175 175 177 179 179 176 173 170 167 165 164 164 165 162 160 159 160 162
210 205 206 202 194 188 204 212 213 214 224 232 232 230 198 181 180 182 185 183 172 166 167 171 175 180 179 177 178 179 179 174 170 168 169 171 171 169 167 163 161 162 162 164
205 211 221 225 209 185 198 207 210 216 220 225 229 231 230 214 201 198 193 184 175 173 174 180 181 182 179 178 180 180 179 174 169 168 171 173 168 163 161 161 161 161 162 167
202 205 217 231 230 214 209 210 212 218 223 231 239 242 234 238 216 212 207 190 183 187 186 181 180 180 182 182 182 179 177 173 167 170 171 166 163 162 163 162 161 161 165 168
198 198 202 224 221 230 234 218 215 218 223 224 233 237 234 243 232 218 208 198 193 191 185 181 180 183 183 180 177 177 173 164 165 167 166 165 164 164 164 163 162 168 172 172
207 208 198 206 202 224 234 212 218 224 226 223 230 228 222 230 224 207 198 196 194 186 180 177 172 173 172 164 161 158 155 158 162 164 165 164 163 163 161 163 169 171 171 177
209 201 195 193 209 237 235 204 204 214 231 221 224 224 221 214 219 236 205 183 181 176 161 156 155 152 148 149 149 146 151 154 158 164 165 163 161 160 163 170 172 171 172 184
201 196 195 192 204 219 214 189 180 193 240 221 215 217 207 183 211 226 186 168 159 140 129 126 123 122 133 141 140 143 150 153 162 162 158 155 156 161 166 169 169 169 174 185
189 193 198 198 213 242 216 167 146 185 229 204 201 201 191 193 201 167 143 133 128 124 122 119 119 123 133 135 135 142 147 156 151 141 140 144 149 155 158 160 164 165 170 175
182 185 194 197 209 228 176 154 173 198 172 169 179 185 181 175 151 139 133 131 128 126 127 126 123 122 124 131 136 139 143 137 129 132 135 139 142 147 151 155 161 163 166 181
191 192 184 197 213 194 168 180 192 164 157 155 154 154 152 150 151 146 143 141 140 139 135 129 128 124 122 127 133 136 137 131 130 131 133 135 136 141 150 157 163 166 172 187
198 192 196 204 208 194 189 182 182 164 151 143 139 142 145 149 150 148 147 146 144 140 138 134 131 130 127 121 121 127 128 127 129 131 132 135 139 144 147 152 163 173 185 199
201 189 205 217 197 173 197 196 183 161 133 128 127 140 149 146 150 152 151 151 148 142 139 139 140 137 133 125 121 123 127 128 128 130 132 135 140 148 155 164 180 190 203 206
207 197 197 210 196 186 201 198 179 168 171 161 147 140 142 149 152 149 149 148 145 143 141 139 138 136 133 128 125 125 127 129 132 135 137 139 143 146 153 166 212 235 238 248
Height
1471 1474 1473 1471 1472 1474 1473 1473 1474 1469 1466 1472 1475 1474 1470 1468 1468 1467 1466 1467 1467 1468 1470 1472 1474 1478 1481 1485 1488 1490 1493 1497 1502 1505 1509 1512 1516 1520 1523 1526 1528 1531 1533 1534
1466 1465 1462 1464 1466 1469 1472 1474 1473 1468 1465 1469 1472 1470 1464 1461 1460 1459 1459 1460 1460 1462 1464 1465 1468 1471 1474 1478 1482 1485 1488 1491 1496 1500 1504 1508 1512 1516 1519 1522 1525 1527 1530 1531
1454 1452 1457 1460 1462 1466 1467 1471 1472 1471 1467 1466 1471 1470 1460 1453 1451 1452 1452 1453 1454 1456 1457 1459 1462 1464 1468 1472 1476 1479 1482 1486 1491 1496 1501 1505 1508 1512 1515 1518 1521 1524 1526 1528
1447 1447 1450 1454 1456 1459 1465 1462 1465 1468 1474 1476 1471 1477 1459 1450 1447 1445 1445 1446 1448 1450 1452 1454 1456 1459 1462 1466 1470 1474 1478 1482 1486 1491 1495 1498 1501 1505 1508 1513 1517 1520 1523 1525
1438 1439 1443 1446 1448 1452 1456 1457 1462 1466 1472 1476 1471 1475 1459 1445 1445 1441 1439 1441 1442 1445 1447 1449 1451 1454 1457 1461 1465 1469 1473 1477 1482 1486 1490 1494 1498 1502 1506 1509 1513 1516 1519 1521
1431 1431 1434 1438 1442 1446 1451 1458 1463 1466 1472 1480 1468 1471 1459 1443 1437 1435 1435 1436 1438 1440 1443 1445 1447 1450 1453 1457 1460 1464 1468 1472 1477 1481 1486 1490 1494 1498 1501 1504 1508 1512 1515 1517
1431 1428 1427 1431 1440 1444 1450 1464 1478 1481 1482 1474 1455 1458 1448 1431 1428 1429 1432 1434 1435 1437 1439 1441 1443 1445 1448 1451 1455 1459 1463 1468 1472 1477 1481 1486 1490 1494 1497 1500 1504 1507 1510 1513
1429 1429 1423 1424 1430 1439 1445 1454 1467 1474 1469 1456 1449 1449 1436 1423 1423 1426 1429 1431 1433 1435 1436 1438 1439 1441 1444 1447 1451 1455 1459 1463 1468 1472 1477 1482 1486 1490 1493 1497 1500 1503 1506 1509
1415 1419 1415 1418 1422 1429 1440 1445 1444 1453 1452 1457 1446 1433 1424 1420 1421 1424 1426 1429 1430 1432 1433 1434 1436 1438 1440 1443 1446 1450 1455 1459 1464 1468 1473 1478 1482 1485 1489 1493 1496 1499 1502 1505
1399 1411 1410 1415 1421 1423 1426 1435 1446 1454 1463 1466 1447 1438 1431 1422 1421 1422 1424 1426 1428 1429 1430 1432 1433 1435 1437 1440 1443 1448 1452 1455 1460 1465 1469 1474 1477 1481 1485 1489 1492 1495 1498 1501
1395 1403 1408 1412 1415 1419 1425 1430 1433 1442 1446 1451 1449 1435 1409 1411 1413 1418 1421 1423 1425 1426 1428 1429 1431 1433 1435 1437 1441 1444 1448 1452 1456 1461 1465 1470 1473 1477 1481 1484 1488 1491 1494 1497
1391 1396 1406 1407 1405 1408 1414 1417 1424 1437 1437 1435 1441 1432 1404 1406 1409 1413 1417 1420 1422 1424 1425 1426 1428 1430 1432 1435 1437 1441 1444 1448 1452 1457 1461 1465 1469 1472 1476 1480 1483 1487 1490 1493
1389 1396 1406 1414 1415 1411 1411 1410 1413 1419 1425 1428 1435 1428 1405 1406 1409 1412 1415 1417 1419 1421 1422 1424 1426 1427 1429 1432 1434 1438 1441 1445 1449 1453 1457 1460 1464 1467 1471 1475 1479 1482 1485 1488
1383 1388 1394 1399 1396 1399 1406 1407 1407 1413 1420 1422 1420 1416 1408 1407 1408 1409 1411 1413 1416 1418 1420 1421 1423 1425 1427 1429 1431 1434 1438 1441 1445 1449 1452 1456 1459 1463 1467 1471 1474 1478 1480 1483
1376 1382 1383 1382 1380 1385 1393 1397 1400 1403 1404 1411 1407 1407 1404 1402 1403 1404 1406 1409 1412 1414 1416 1418 1419 1421 1423 1425 1428 1431 1434 1437 1441 1444 1448 1451 1455 1459 1463 1466 1470 1473 1476 1478
1373 1378 1382 1382 1378 1379 1385 1388 1391 1393 1395 1397 1399 1398 1393 1395 1397 1399 1402 1404 1407 1410 1412 1414 1415 1417 1419 1421 1423 1426 1429 1433 1436 1440 1443 1447 1451 1455 1458 1461 1465 1468 1470 1473
1376 1377 1382 1384 1380 1382 1386 1381 1383 1385 1385 1388 1392 1389 1391 1392 1393 1395 1397 1400 1402 1405 1407 1409 1411 1413 1415 1417 1419 1422 1425 1429 1432 1435 1439 1443 1446 1450 1453 1457 1460 1462 1465 1467
1373 1375 1378 1383 1386 1392 1374 1367 1372 1375 1375 1377 1379 1381 1384 1386 1388 1390 1392 1395 1397 1400 1402 1404 1406 1408 1411 1413 1416 1419 1422 1425 1428 1431 1435 1438 1442 1445 1448 1451 1454 1457 1460 1462
1365 1371 1377 1382 1382 1377 1365 1360 1362 1368 1369 1367 1371 1374 1377 1381 1384 1385 1387 1390 1393 1395 1398 1400 1402 1404 1407 1409 1412 1415 1418 1421 1424 1427 1430 1434 1437 1440 1443 1446 1449 1452 1455 1457
1357 1362 1373 1377 1378 1374 1356 1351 1352 1362 1367 1359 1362 1366 1370 1375 1384 1382 1383 1385 1388 1391 1393 1396 1398 1400 1403 1406 1408 1411 1414 1417 1420 1423 1427 1430 1433 1436 1439 1442 1445 1447 1450 1452
1355 1359 1365 1370 1370 1358 1344 1343 1349 1367 1359 1350 1352 1356 1362 1367 1371 1375 1378 1381 1384 1387 1389 1392 1395 1397 1400 1403 1406 1409 1412 1414 1417 1421 1424 1427 1430 1432 1435 1438 1441 1443 1445 1447
1347 1353 1357 1361 1364 1358 1339 1341 1347 1347 1344 1344 1346 1350 1355 1360 1366 1370 1374 1377 1380 1383 1386 1389 1392 1395 1398 1401 1404 1406 1409 1412 1416 1419 1421 1424 1427 1429 1432 1434 1436 1439 1440 1442
1336 1337 1340 1343 1342 1334 1333 1335 1337 1339 1342 1343 1345 1348 1352 1356 1361 1366 1370 1374 1378 1381 1384 1387 1390 1393 1396 1399 1402 1404 1407 1410 1413 1416 1419 1421 1424 1426 1428 1431 1432 1434 1436 1437
1327 1328 1331 1333 1331 1330 1331 1332 1335 1338 1340 1342 1344 1346 1350 1353 1358 1363 1367 1371 1375 1379 1382 1385 1388 1391 1394 1397 1400 1403 1405 1408 1411 1414 1416 1418 1421 1423 1425 1427 1429 1430 1431 1431
1321 1323 1325 1327 1325 1326 1328 1330 1333 1336 1338 1340 1343 1346 1348 1352 1356 1360 1364 1368 1372 1376 1380 1383 1386 1389 1392 1395 1398 1401 1404 1406 1409 1411 1414 1416 1418 1420 1422 1423 1425 1426 1426 1427
1313 1315 1318 1319 1319 1322 1323 1326 1330 1333 1336 1338 1341 1344 1347 1351 1354 1358 1362 1366 1370 1374 1378 1381 1384 1387 1390 1393 1396 1399 1402 1404 1406 1408 1411 1413 1415 1417 1418 1419 1420 1421 1422 1422